Location: Jaite
(41.2884°N, 81.5737°W)
Time: 11:03:14
(UTC+00:00)

Cosmos 2184 Rocket - Pass Details

Date: 18 January 2020
Orbit: 959 x 1002 km, 82.9° (Epoch: 18 February)

Event Time Altitude Azimuth Distance (km) Brightness Sun altitude
Exits shadow 10:29:39 10° 350° (N) 2,699 6.2 -25.8°
Maximum altitude 10:35:49 78° 265° (W) 996 3.8 -24.6°
Drops below altitude 10° 10:42:02 10° 180° (S) 2,718 6.4 -23.4°
Sets 10:44:33 0° 179° (S) 3,669 7.1 -23.0°
